Find Starlink 37378

NORAD ID: 69255 Int'l Des: 2026-117 Owner: SPXS Country: US Constellation: starlink operational
LEOCIRCULAR

現在のビュー

3D地球を読み込み中...

About Starlink 37378

Starlink 37378 (NORAD 69255) is a starlink constellation satellite (v2 mini) launched May 29, 2026 by SPXS of US. It operates in LEO, CIRCULAR orbit with a mass of 575.00 kg.

Starlink 37378について

説明を読み込み中...

次回通過

Passes for default location (London). Set your location on the main map for personalized predictions.

高度履歴

Loading altitude history...

軌道要素

1 69255U 26117T 26200.06491979 .00006600 00000-0 21179-3 0 9994
2 69255 53.1586 89.8797 0001498 94.6650 265.4523 15.33554339 7934
Epoch: Jul 19, 2026 • Age: 14 hours

現在のステータス

高度 467.4 km
遠地点 / 近地点 N/A
速度 7.63 km/s
衛星直下点 -6.52°S, 89.18°W
打ち上げ日 May 29, 2026
運用期間 0.1 years
タイプ internet

技術仕様

分類 Payload
質量 575.00 kg
乾燥質量 530.00 kg
総質量 575.00 kg
長さ 0.30 m
直径 4.10 m
スパン 29.00 m
形状 Box + pan
製造者 SPXS
バスタイプ Starlink V2MO
フェーズステータス In Orbit
所有者/国 SPXS/US

Most Searched